SES-5 (38652 NORAD) Tracking and Keplerian Element Data

This shows tracking and keplerian element data for the satellite.

Feedback or suggestion? Click here.




ElementValue
Catalog38652
NameSES-5
Epoch Orbit1701
Epoch Day348.81257417
Epoch Year2018
RAAN284.842
Inclination0.0131
Eccentricity0.0002065
Argument of Perigee324.8282
Mean Anonmoly131.2564
Mean Motion1.00271463
Decay Rate4.5E-07
L11 38652U 12036A 18348.81257417 .00000045 00000-0 00000-0 0 9994
L22 38652 0.0131 284.8420 0002065 324.8282 131.2564 1.00271463 17016

Live tracking and technical data element details for SES-5 (NORAD 38652). SES-5 can be tracked NOW for your location showing map with azimuth and elevation plus other details from your city location.

Track the satellite on the map from your city or location and see movement details for azimuth, elevation, latitude, longitude, range, height, and movement on the map or in text.







IsCatalogInMostPopularTable: catalog: 38652, numindb: 83
Update: records affected: 1



GetName: 38652 SES-5

Hit Count: updated at: Sat, 15 Dec 2018 14:34:09 GMT